Powrót do katalogu

CZ-4 DEB

AktywnySSO
NORAD 26203·DEBRIS·🇨🇳 China

Wystrzelony Oct 14, 1999 z Taiyuan Satellite Launch Center

Loading…

Następne Przeloty (najbliższe 24 godziny)

TLE

ŚwieżeSource: Space-Track

Epoka: Sep 14, 2026, 08:04 UTC

1 26203U 99057CR  26257.33624324  .00000285  00000-0  11036-3 0  9991
2 26203  98.3550  27.6588 0108816  57.5051 331.4026 14.33769620381730

Śledź CZ-4 DEB w czasie rzeczywistym z AllMySat

Download on the App Store